Wind_Speed
25 25 25 26 27 27 28 29 30 31 32 32 32 32 32 32 33 34 35 35 35 35 35 36 36 36 36 36 37 37 38 39 39 39 40 40 40 41 43 43 44 44 44 45
24 24 25 26 26 26 27 28 29 29 30 31 30 30 31 31 31 33 33 34 34 33 34 35 35 36 36 36 36 36 37 38 39 39 40 41 41 42 42 43 44 45 45 45
24 24 25 25 25 26 27 28 28 28 28 29 30 29 29 30 30 31 32 33 34 34 34 34 35 35 35 36 36 37 38 38 39 39 40 40 41 42 43 43 45 46 47 47
23 23 24 25 26 25 26 27 28 28 28 28 29 29 28 29 29 29 30 31 33 33 33 33 34 34 35 35 36 37 38 39 39 40 41 41 42 42 43 43 44 45 46 46
22 22 23 24 25 25 26 27 27 27 27 27 27 29 27 28 28 28 28 29 30 31 32 32 33 34 34 35 36 37 38 39 39 40 41 42 43 43 44 44 44 44 44 44
22 22 22 24 24 24 25 26 26 26 26 26 25 27 27 27 28 28 27 27 28 29 31 33 33 34 34 35 36 37 38 39 40 41 42 42 43 43 43 43 43 42 43 43
21 21 22 23 24 24 24 25 25 25 24 24 24 26 25 26 26 26 26 27 28 29 30 32 33 34 35 35 36 37 38 39 40 41 42 43 43 43 43 43 43 43 43 42
21 21 22 22 23 24 24 23 24 25 25 25 24 24 23 24 25 26 26 27 28 30 31 32 33 33 34 34 35 36 37 38 39 40 42 43 43 43 43 43 43 43 43 42
21 21 22 22 22 23 23 23 23 25 26 26 25 25 23 23 24 25 26 27 28 30 32 33 33 34 35 35 36 36 37 38 39 40 41 41 42 42 42 42 43 43 42 41
22 22 21 21 22 22 22 22 23 24 26 27 26 25 24 24 25 26 26 28 29 30 31 32 33 34 35 35 36 37 37 38 39 40 40 40 41 41 41 42 41 41 40 40
23 23 21 22 22 22 22 23 23 24 25 26 27 26 25 26 26 27 28 29 29 31 32 33 34 34 35 35 36 37 37 38 39 39 39 39 39 40 40 40 40 40 40 40
24 24 23 22 22 22 23 23 24 25 25 26 27 26 24 26 27 28 29 30 31 32 32 33 34 34 35 35 35 35 36 37 37 36 37 37 37 37 37 37 37 38 39 39
24 24 23 23 22 22 23 23 24 25 25 26 26 26 25 26 27 28 29 30 31 32 32 32 32 33 33 34 34 35 35 35 35 35 35 35 35 35 35 36 36 37 37 37
24 24 24 23 24 24 23 23 24 24 25 25 25 25 25 27 28 28 29 29 30 31 32 32 32 33 34 34 34 35 35 34 34 34 34 34 34 34 34 35 35 35 35 35
25 24 24 24 25 26 25 25 25 24 24 24 24 24 25 27 28 28 29 30 29 30 30 31 31 32 33 33 33 34 34 34 34 34 33 33 33 33 33 33 33 33 33 34
25 26 26 25 25 26 26 26 25 25 25 25 25 25 26 27 28 28 29 30 30 30 30 31 31 32 32 32 33 33 33 33 33 33 33 33 33 32 32 32 32 32 32 32
25 26 27 26 26 26 26 24 24 24 25 26 27 27 28 28 28 29 29 29 30 30 31 31 31 32 32 32 32 32 32 33 32 32 32 31 31 31 31 31 31 31 31 32
26 27 27 26 26 26 25 24 24 24 25 26 27 28 29 29 29 29 30 30 30 31 31 31 31 31 32 32 31 31 30 30 30 30 30 29 29 30 30 30 30 30 31 31
26 26 26 26 26 25 24 24 25 26 25 26 28 28 29 29 29 29 29 30 30 31 31 31 31 31 31 30 30 30 29 29 28 28 28 28 28 28 28 28 29 30 30 30
26 25 25 26 26 25 24 24 24 26 26 26 27 28 29 29 28 27 27 28 29 29 30 30 30 30 29 29 28 28 27 27 27 26 26 26 27 27 27 27 28 28 28 29
25 25 25 25 26 25 24 23 24 25 25 25 26 26 27 27 26 26 26 27 27 28 28 28 28 27 27 26 26 25 25 25 25 25 25 25 26 26 26 27 26 26 26 27
24 24 24 24 25 24 23 23 24 24 25 25 25 26 26 26 26 25 26 26 26 27 27 26 26 25 24 24 23 23 23 23 22 23 24 25 25 25 25 24 24 25 25 25
22 23 24 24 24 24 23 23 23 24 24 25 25 26 26 25 25 25 25 26 27 27 26 26 25 23 23 22 22 22 22 22 21 21 22 23 24 24 24 23 23 23 23 23
20 21 22 22 22 22 22 22 22 23 24 24 25 25 25 25 24 25 25 26 26 26 26 25 24 22 22 21 21 21 20 20 20 21 21 21 22 22 22 22 22 22 22 22
21 22 21 21 21 21 22 23 23 23 24 24 24 24 24 24 25 25 25 26 26 25 25 24 23 22 22 21 21 21 20 20 20 21 21 21 20 20 20 20 21 21 21 21
21 22 22 21 21 21 22 23 23 23 24 24 24 24 24 24 25 25 25 25 25 25 25 24 23 22 22 21 21 20 20 20 20 20 20 20 19 19 19 19 19 20 20 20
Wind_Direction
278 275 275 276 277 279 281 280 279 277 275 273 271 269 268 268 268 269 268 267 265 263 261 261 261 261 261 261 262 263 263 263 263 262 262 263 263 263 263 264 264 263 263 263
279 277 277 277 278 281 282 282 282 279 277 275 272 270 270 268 268 267 267 265 262 262 260 260 261 262 262 262 262 262 263 263 263 263 263 264 264 264 264 264 265 265 264 263
281 281 280 280 281 282 284 284 284 281 279 276 274 272 271 270 269 267 266 264 262 261 259 259 261 262 262 263 264 265 265 264 264 264 265 265 265 264 265 265 265 266 265 264
282 284 284 284 283 284 285 285 284 282 280 279 277 275 271 271 270 268 266 266 263 262 260 259 261 262 264 264 265 266 267 267 267 267 266 266 266 266 265 265 266 267 267 265
283 285 287 286 285 285 287 286 286 284 281 281 280 277 273 273 272 271 268 268 266 262 262 262 262 264 265 266 267 267 267 268 268 268 268 268 268 268 268 266 265 266 266 266
284 285 287 288 286 286 288 288 287 285 283 282 280 278 278 275 274 274 272 270 268 265 264 263 263 265 266 267 269 269 268 268 269 269 269 269 269 269 269 268 267 266 265 266
286 286 287 287 287 286 287 288 289 288 286 284 283 281 281 278 276 275 273 270 268 266 266 265 265 267 268 269 270 270 270 270 271 271 271 271 271 270 270 268 267 267 267 266
289 289 287 286 287 288 287 286 286 287 287 287 285 284 283 282 279 277 275 273 270 269 268 268 267 268 269 270 272 272 272 272 272 272 272 272 271 271 270 268 268 268 267 266
290 290 287 286 286 287 287 284 285 285 286 286 286 284 283 284 282 280 277 274 273 273 271 270 270 271 271 272 273 274 275 275 275 274 273 272 271 270 269 268 268 268 267 265
290 290 286 284 285 285 286 286 285 284 286 286 286 287 288 286 284 281 280 278 276 276 274 272 273 274 275 275 275 276 276 276 276 275 274 273 272 270 269 269 268 267 265 264
289 288 287 284 284 285 286 286 284 284 284 285 287 289 290 288 287 284 283 281 279 279 276 275 276 276 277 277 277 278 277 277 277 276 275 274 273 271 271 270 269 268 266 265
287 287 286 286 284 284 284 284 283 283 285 285 286 290 290 289 288 286 285 284 283 283 279 278 278 277 277 277 278 279 279 278 278 277 276 275 273 273 273 271 270 268 266 265
287 287 287 286 285 285 286 284 283 283 283 285 286 289 290 289 289 289 288 288 288 287 284 281 280 279 279 279 279 280 280 280 279 277 277 276 274 274 273 271 270 268 267 265
285 286 287 288 288 287 288 285 283 283 284 286 287 289 289 289 290 291 291 291 291 290 288 286 284 282 281 280 280 280 280 280 280 278 277 277 276 275 274 272 271 269 267 265
284 285 287 287 287 286 287 285 283 284 285 286 289 289 290 291 293 292 291 291 291 292 291 290 288 286 284 284 282 281 280 280 279 278 278 278 277 276 274 272 271 269 266 264
284 285 286 288 288 286 284 283 283 283 284 286 287 288 289 291 293 293 292 292 292 293 293 292 290 288 287 285 284 283 281 280 279 278 277 277 277 276 274 272 270 268 265 263
284 286 287 287 287 287 284 285 283 283 284 286 288 289 289 290 291 292 292 292 292 293 293 293 291 290 289 287 285 284 283 282 280 277 276 275 276 275 274 273 269 267 265 263
284 286 287 286 287 287 289 285 283 284 284 286 289 291 291 292 293 294 293 293 292 293 294 294 292 291 289 287 286 284 283 282 280 278 276 276 275 274 274 273 270 267 266 263
283 286 286 286 287 288 288 287 286 286 286 288 290 292 292 293 293 294 294 294 294 294 295 295 294 292 290 289 287 285 282 281 280 279 276 275 274 274 274 273 271 268 266 261
283 284 285 287 288 289 290 288 287 288 289 290 292 294 295 295 295 296 297 297 297 297 297 296 295 292 290 289 288 286 284 282 281 280 277 275 275 275 275 274 273 270 266 262
282 282 284 286 288 289 288 289 290 290 292 293 294 296 298 297 297 299 299 299 299 299 299 298 296 294 292 289 287 286 285 285 282 279 278 277 276 276 276 274 272 270 267 263
283 282 283 285 287 290 289 289 290 291 293 294 296 298 299 299 297 298 299 300 300 300 300 299 298 296 294 292 289 288 288 288 285 282 281 279 277 277 276 274 272 271 268 264
284 285 285 285 285 286 288 290 291 291 292 294 296 298 299 299 298 298 298 299 300 300 300 300 298 297 295 294 292 290 289 288 287 285 284 282 280 278 276 275 274 271 267 263
283 285 286 286 285 284 286 289 291 291 293 295 297 299 300 299 299 299 300 300 300 300 300 299 297 296 295 293 293 291 290 289 288 287 287 286 283 279 277 275 274 272 267 262
283 285 286 286 284 283 285 288 290 291 293 295 296 298 300 299 299 300 300 300 300 300 301 299 297 295 294 293 293 292 290 290 291 290 290 287 285 282 278 276 276 272 267 262
285 286 286 286 285 287 288 288 289 291 294 296 297 298 298 298 299 300 301 302 301 300 299 298 297 295 294 293 292 291 292 292 293 294 294 291 287 283 281 278 275 269 265 261
Height
5717 5716 5715 5715 5714 5713 5711 5711 5710 5709 5707 5706 5705 5704 5703 5703 5702 5701 5700 5699 5699 5700 5700 5701 5701 5702 5702 5703 5703 5703 5704 5704 5704 5705 5705 5705 5705 5706 5706 5706 5706 5707 5707 5708
5710 5709 5708 5707 5706 5705 5703 5702 5701 5700 5698 5696 5696 5695 5694 5693 5692 5692 5691 5690 5690 5690 5690 5691 5692 5692 5693 5693 5693 5694 5694 5694 5694 5694 5695 5695 5694 5694 5695 5695 5695 5695 5695 5696
5703 5703 5701 5700 5699 5697 5695 5694 5692 5691 5689 5688 5686 5686 5685 5683 5683 5682 5681 5681 5680 5681 5681 5682 5683 5683 5683 5684 5684 5684 5684 5684 5684 5684 5684 5684 5684 5684 5683 5684 5684 5683 5683 5683
5696 5696 5694 5693 5691 5690 5688 5687 5685 5683 5681 5679 5678 5676 5677 5675 5674 5673 5673 5672 5672 5672 5672 5673 5674 5674 5674 5675 5675 5674 5674 5674 5674 5673 5673 5673 5673 5673 5672 5672 5672 5671 5671 5671
5690 5689 5687 5686 5684 5683 5681 5679 5677 5675 5673 5672 5670 5668 5669 5667 5666 5665 5665 5664 5664 5664 5664 5665 5665 5665 5665 5665 5664 5664 5664 5663 5663 5662 5662 5662 5661 5661 5660 5660 5660 5660 5659 5659
5684 5682 5680 5679 5677 5676 5674 5672 5670 5668 5666 5665 5663 5661 5661 5660 5659 5658 5657 5656 5656 5656 5656 5656 5656 5656 5655 5655 5654 5654 5653 5653 5652 5651 5651 5650 5650 5650 5649 5649 5649 5649 5649 5649
5678 5676 5674 5672 5671 5669 5667 5666 5663 5660 5658 5658 5656 5654 5654 5653 5651 5650 5649 5648 5647 5647 5647 5646 5646 5646 5646 5645 5644 5643 5643 5642 5641 5640 5640 5639 5639 5638 5638 5637 5637 5637 5637 5638
5671 5671 5668 5666 5664 5662 5660 5659 5657 5654 5652 5651 5649 5648 5649 5646 5644 5643 5642 5641 5640 5639 5638 5637 5637 5637 5636 5635 5635 5633 5632 5632 5631 5630 5629 5628 5627 5627 5626 5626 5626 5626 5626 5626
5664 5664 5662 5660 5658 5656 5654 5652 5651 5649 5646 5644 5643 5642 5642 5639 5637 5636 5634 5633 5632 5631 5629 5629 5628 5628 5627 5626 5625 5624 5623 5622 5620 5619 5618 5616 5616 5615 5615 5615 5614 5614 5615 5615
5658 5657 5656 5654 5652 5650 5648 5646 5645 5642 5639 5637 5637 5635 5635 5633 5631 5629 5627 5626 5624 5623 5621 5620 5619 5618 5617 5616 5615 5614 5613 5611 5610 5608 5606 5605 5605 5604 5603 5603 5603 5603 5603 5604
5651 5650 5649 5647 5645 5644 5642 5640 5638 5635 5633 5631 5630 5632 5629 5627 5624 5622 5620 5618 5616 5615 5613 5612 5610 5609 5608 5606 5605 5604 5602 5600 5599 5597 5596 5595 5594 5593 5592 5592 5591 5591 5592 5593
5645 5643 5642 5641 5639 5637 5635 5633 5632 5630 5628 5625 5623 5627 5622 5619 5616 5614 5612 5610 5608 5606 5604 5602 5601 5600 5598 5596 5595 5593 5591 5590 5588 5587 5585 5584 5583 5582 5582 5581 5580 5580 5581 5581
5638 5637 5635 5634 5635 5632 5629 5627 5625 5623 5621 5619 5617 5620 5615 5612 5609 5607 5604 5602 5599 5597 5595 5593 5592 5590 5588 5586 5585 5583 5581 5579 5578 5576 5575 5574 5573 5572 5571 5570 5570 5570 5570 5570
5632 5630 5630 5628 5625 5623 5622 5620 5618 5616 5614 5612 5611 5610 5608 5605 5602 5600 5597 5594 5591 5589 5587 5584 5582 5580 5578 5576 5575 5573 5571 5569 5567 5566 5564 5564 5563 5562 5561 5560 5560 5559 5559 5560
5625 5624 5622 5621 5618 5616 5615 5613 5611 5609 5607 5606 5605 5602 5601 5597 5594 5592 5589 5586 5584 5581 5578 5576 5573 5571 5569 5566 5564 5563 5561 5559 5557 5556 5554 5553 5552 5551 5550 5550 5549 5549 5549 5549
5617 5616 5615 5614 5611 5609 5607 5606 5604 5602 5600 5598 5596 5595 5593 5589 5587 5584 5581 5578 5576 5573 5571 5568 5565 5562 5560 5557 5555 5553 5551 5549 5547 5546 5545 5543 5542 5541 5540 5540 5539 5539 5539 5540
5610 5609 5607 5606 5604 5601 5600 5600 5597 5596 5594 5591 5589 5588 5585 5582 5579 5576 5573 5570 5568 5565 5562 5559 5556 5553 5550 5548 5546 5543 5542 5539 5537 5536 5535 5534 5533 5532 5531 5530 5530 5530 5530 5530
5603 5601 5599 5597 5596 5594 5596 5592 5590 5588 5587 5584 5582 5580 5577 5574 5571 5568 5565 5562 5559 5556 5553 5550 5547 5544 5541 5539 5536 5534 5532 5530 5528 5527 5526 5525 5524 5523 5522 5521 5521 5521 5520 5521
5595 5593 5591 5590 5588 5587 5588 5585 5582 5580 5579 5577 5574 5571 5569 5566 5563 5561 5557 5554 5551 5548 5544 5541 5538 5535 5532 5530 5527 5525 5523 5521 5519 5518 5517 5517 5516 5515 5514 5513 5512 5512 5511 5511
5588 5586 5585 5582 5580 5580 5581 5578 5574 5573 5571 5569 5566 5563 5561 5558 5555 5554 5550 5546 5542 5539 5536 5532 5529 5526 5523 5521 5518 5516 5514 5513 5511 5510 5509 5508 5507 5506 5506 5505 5504 5503 5502 5502
5581 5579 5578 5576 5573 5572 5572 5569 5567 5567 5565 5562 5559 5556 5553 5550 5548 5545 5542 5539 5535 5532 5528 5524 5521 5518 5515 5512 5510 5508 5507 5505 5503 5502 5501 5500 5499 5498 5497 5496 5495 5495 5494 5494
5573 5572 5570 5568 5566 5568 5564 5562 5561 5559 5557 5554 5551 5549 5546 5543 5540 5537 5534 5531 5528 5525 5521 5517 5514 5511 5508 5505 5503 5501 5500 5498 5496 5494 5493 5492 5491 5490 5489 5488 5488 5487 5486 5486
5566 5565 5563 5563 5563 5560 5557 5555 5553 5552 5550 5547 5545 5542 5539 5536 5533 5530 5527 5524 5521 5518 5514 5511 5507 5504 5502 5499 5497 5495 5493 5491 5489 5488 5486 5485 5483 5482 5481 5481 5480 5479 5479 5479
5559 5558 5556 5555 5555 5553 5551 5548 5547 5545 5543 5540 5538 5535 5532 5529 5526 5523 5520 5517 5514 5511 5507 5504 5501 5498 5496 5493 5491 5489 5487 5485 5483 5481 5479 5478 5476 5475 5474 5473 5472 5472 5471 5472
5553 5551 5550 5548 5547 5546 5544 5542 5540 5538 5536 5534 5531 5529 5526 5523 5520 5517 5514 5510 5507 5504 5501 5497 5495 5492 5489 5487 5485 5483 5481 5479 5477 5475 5473 5471 5469 5468 5467 5466 5465 5465 5465 5465
5547 5545 5543 5542 5540 5539 5538 5536 5534 5532 5530 5527 5525 5522 5519 5516 5513 5510 5507 5504 5500 5497 5494 5491 5488 5486 5483 5481 5479 5476 5474 5472 5470 5468 5466 5464 5463 5461 5460 5459 5459 5458 5458 5459